GFSNGP_con_lsi_000.txt.gz
Lid_Strength_Index
7 7 7 7 8 7 8 8 9 8 8 7 6 5 4 4 3 3 3 4 4 4 3 3 3 2 2 1 1 1 1 1 1 1 0 0 0 0 0 0 -0 -0 0 0
8 7 7 8 7 7 7 7 7 7 7 6 5 4 4 4 3 4 3 3 3 3 3 3 3 2 2 2 1 1 2 1 1 1 1 1 1 1 0 0 -0 -0 0 0
10 7 8 9 7 7 7 6 6 9 6 5 6 5 4 3 3 4 3 3 3 3 3 3 3 2 2 2 1 1 1 1 1 1 1 1 1 1 1 -0 0 0 1 0
10 9 13 7 5 6 6 6 5 6 5 5 5 4 3 2 3 3 3 3 3 2 3 2 2 2 2 1 1 2 2 1 1 1 1 1 1 1 1 1 1 1 1 1
11 11 9 7 6 7 8 8 5 5 5 4 4 4 4 3 2 2 2 2 2 2 2 2 2 2 2 2 2 2 2 2 1 1 1 1 1 1 1 1 1 1 1 1
9 12 13 8 6 5 5 10 6 5 5 5 4 7 6 3 3 3 2 1 1 1 2 2 2 2 2 2 2 2 2 2 1 1 1 1 1 1 1 0 1 1 1 1
10 11 8 5 5 5 12 12 6 5 5 4 5 5 3 2 2 2 1 2 1 1 2 2 2 2 2 2 2 2 1 1 1 1 1 1 1 1 1 1 1 1 1 1
10 11 12 5 6 9 7 4 4 4 5 4 3 3 3 3 2 2 2 2 2 2 3 2 1 2 2 3 1 1 1 1 1 1 1 1 0 0 1 1 2 2 1 2
11 12 8 5 5 4 4 4 4 4 3 3 4 3 3 3 3 3 2 2 2 2 2 2 1 1 2 1 -0 -1 -0 1 0 -0 0 -0 0 1 2 1 2 1 2 2
9 10 9 5 4 4 3 4 3 3 3 3 3 3 3 3 3 3 2 2 2 2 3 2 2 2 1 1 0 0 1 1 1 1 1 1 1 1 2 1 2 2 3 2
7 8 6 5 4 4 3 3 3 3 3 3 3 3 3 3 2 3 3 3 3 3 3 3 3 3 2 1 2 2 1 1 1 1 1 1 4 5 1 5 5 2 2 2
10 6 6 5 4 3 4 3 3 3 3 2 2 3 3 3 3 3 3 3 3 3 3 3 2 2 2 1 1 1 1 2 1 1 2 2 2 4 9 9 11 11 9 6
6 4 4 4 3 3 4 3 3 2 2 3 2 2 2 3 3 3 3 3 3 3 2 2 2 2 2 1 0 1 1 1 1 2 1 1 2 2 3 6 9 9 8 8
4 4 5 5 5 4 3 3 2 2 2 2 2 2 2 2 3 3 3 2 2 2 2 2 2 2 1 0 0 1 1 4 1 1 1 2 2 2 2 2 3 2 7 7
4 4 4 3 3 3 2 2 3 3 3 2 2 2 3 3 3 3 2 2 1 2 2 2 2 2 1 0 1 1 1 1 1 1 2 2 1 1 2 2 2 2 1 5
4 4 3 4 3 3 3 3 3 3 3 2 2 2 2 2 3 2 2 2 2 3 2 2 2 1 0 0 1 1 1 2 2 1 2 1 2 2 2 2 2 2 3 4
4 5 4 4 4 3 3 3 3 3 3 2 2 2 2 2 4 3 3 2 2 2 2 1 1 1 0 0 1 1 2 1 2 1 2 1 2 2 2 2 2 3 4 5
3 3 3 3 3 3 3 3 2 2 3 2 2 2 2 3 3 4 3 3 3 2 1 1 0 1 0 0 0 1 2 1 1 2 1 2 2 2 1 2 2 3 4 5
2 3 3 2 2 2 3 2 2 2 2 2 2 3 3 3 3 3 3 3 3 3 2 1 1 1 1 1 1 1 1 1 1 2 2 4 3 2 1 2 2 3 3 4
3 2 2 2 2 2 3 2 2 2 2 2 2 3 3 3 2 2 3 4 2 2 1 1 1 1 1 1 1 0 2 2 2 2 2 2 2 2 2 4 3 3 3 3
3 3 3 3 3 2 2 2 2 2 2 2 3 3 3 2 2 2 3 3 2 1 1 1 1 1 1 0 0 1 2 2 2 2 2 2 2 2 2 2 3 4 4 4
3 3 3 3 3 3 2 2 3 3 3 3 2 2 2 3 2 2 1 2 1 3 1 1 1 3 1 2 1 1 2 2 2 2 3 2 3 3 3 3 3 3 4 4
3 3 3 3 3 3 3 2 3 2 3 2 2 2 2 2 2 3 4 1 1 2 1 3 4 3 3 1 1 1 2 2 3 3 3 3 3 3 3 3 3 4 4 5
3 3 4 3 3 3 4 3 2 2 2 2 1 1 2 2 2 1 1 3 3 2 1 2 3 4 6 3 3 2 3 4 4 4 4 5 3 3 3 3 4 4 4 6
3 3 3 3 3 4 3 2 2 2 2 1 1 1 1 1 1 1 1 1 3 2 1 4 4 4 4 3 3 3 3 3 4 4 3 3 3 4 4 4 4 4 4 4
3 3 3 3 3 3 3 2 3 3 3 3 2 2 2 1 2 1 1 1 1 2 1 2 3 4 3 3 2 3 3 3 4 4 5 4 4 4 4 4 4 3 4 4
2 4 2 2 2 1 2 2 3 3 3 2 3 2 1 1 1 1 2 1 1 1 1 1 2 3 2 2 2 2 2 3 4 4 4 4 4 4 4 4 3 3 4 4

GFSNGP_con_lsi_003.txt.gz
Lid_Strength_Index
10 9 9 8 9 9 11 11 12 11 11 9 8 7 7 6 6 6 6 5 5 5 4 4 3 3 4 4 3 2 2 2 2 2 1 1 1 1 1 1 1 1 1 1
11 9 9 10 8 8 8 9 10 10 10 7 6 6 6 6 6 6 6 5 5 4 4 4 3 4 4 4 4 3 2 2 2 2 1 1 1 1 1 1 1 1 2 1
13 10 9 12 9 9 8 8 9 11 9 7 8 7 7 6 6 6 5 5 6 5 4 4 3 3 4 4 3 2 2 2 2 2 2 2 1 1 2 2 2 2 1 1
12 11 16 10 7 7 9 8 8 8 7 7 7 6 6 6 6 5 5 5 5 4 4 3 3 3 3 3 3 2 2 2 2 2 2 2 2 2 2 2 2 2 2 1
14 14 12 10 8 9 10 11 7 8 7 6 5 6 7 5 4 4 4 4 4 4 4 3 3 3 3 3 3 2 3 2 2 2 2 2 2 2 2 2 2 2 2 2
15 17 17 10 7 6 7 13 7 6 7 7 7 10 9 5 4 4 4 4 4 3 3 3 3 3 3 3 3 3 2 2 2 2 2 2 2 2 2 2 2 3 3 1
15 16 13 8 7 6 13 12 7 6 6 7 8 7 6 5 5 4 4 3 3 3 4 3 2 2 3 3 3 2 2 2 2 2 2 2 2 2 3 2 4 3 2 2
13 14 15 7 8 12 9 7 6 6 6 6 6 5 5 5 5 4 4 4 3 4 4 3 2 3 3 3 2 2 2 2 2 2 2 2 3 2 2 2 3 2 3 2
13 13 8 7 7 6 6 7 6 6 5 5 5 5 5 5 5 4 4 4 3 4 4 3 3 3 4 4 5 5 2 2 2 2 3 3 3 2 2 2 3 3 3 4
11 10 8 7 6 6 5 5 5 5 5 5 6 5 5 5 5 4 4 4 4 4 6 7 5 5 6 5 4 3 3 2 2 2 2 2 3 3 3 4 3 3 3 4
11 9 7 7 6 5 5 4 4 4 4 4 5 5 6 5 5 5 4 4 4 6 6 6 4 4 4 3 2 4 3 2 2 2 3 6 8 7 4 8 6 4 5 5
13 8 9 8 6 4 5 5 5 5 4 4 4 5 5 5 5 4 4 4 5 5 4 4 4 4 2 2 2 2 3 3 4 3 4 5 7 8 10 9 11 11 10 6
8 6 6 5 4 5 5 5 5 6 5 5 4 4 5 5 4 4 4 4 4 4 4 3 3 3 2 2 1 2 3 3 4 4 3 3 5 6 8 8 10 10 10 8
6 6 7 6 7 5 5 5 4 4 5 4 4 3 4 5 4 4 4 4 4 3 3 3 3 3 2 2 2 2 3 4 3 3 3 3 3 3 3 6 5 6 8 7
5 4 5 5 5 4 4 4 4 4 4 4 4 4 4 5 5 4 3 3 3 3 3 3 3 3 2 2 2 3 3 3 3 3 3 3 3 4 4 4 4 3 4 6
4 4 4 5 5 4 4 4 5 5 4 4 4 4 3 3 4 4 3 3 4 4 3 3 3 3 2 2 2 3 4 3 4 3 3 3 3 4 3 4 4 4 5 6
6 6 6 6 5 5 4 4 4 5 4 4 4 3 3 4 4 4 4 3 4 3 3 3 4 1 1 2 2 3 3 3 2 3 3 4 4 4 4 4 4 5 6 7
4 4 4 4 4 4 4 4 4 4 4 4 3 3 4 5 5 4 4 3 4 3 4 3 2 1 2 2 2 2 3 3 3 2 3 3 3 3 3 4 5 6 7 8
3 4 4 3 3 4 4 4 4 3 3 3 3 5 4 4 4 4 3 4 5 5 3 2 1 1 2 3 2 2 2 3 5 5 4 4 4 3 3 3 3 4 5 6
4 3 3 3 3 3 4 3 3 3 3 3 3 4 4 4 4 4 3 5 4 3 2 2 2 2 2 4 2 4 4 4 4 4 4 4 3 4 5 4 4 4 5 5
4 4 4 4 4 3 3 3 3 4 3 3 4 4 4 3 3 3 4 4 3 3 3 3 2 3 4 3 4 4 4 3 3 3 3 4 4 5 5 4 4 5 6 6
4 4 4 4 4 4 3 3 3 3 4 4 3 3 3 4 4 3 3 3 3 3 2 2 5 3 3 1 5 4 4 3 4 4 4 4 5 6 6 5 6 6 6 6
4 4 4 4 4 4 3 3 3 3 3 3 3 3 4 4 4 4 5 3 3 3 3 5 4 3 3 4 4 4 4 3 4 5 6 6 6 7 7 6 6 6 7 7
4 4 4 3 3 4 4 4 3 3 3 3 3 3 3 4 4 3 3 4 3 3 4 5 5 4 4 5 5 5 5 6 7 7 7 6 6 6 6 6 6 6 8 7
4 3 3 4 4 4 4 3 3 3 3 3 3 2 2 2 4 3 2 3 4 3 4 4 4 5 6 6 5 6 6 7 8 8 8 8 7 7 7 6 6 7 7 8
4 4 3 3 4 3 3 3 4 3 3 4 3 2 2 2 3 2 2 3 3 3 4 6 6 7 6 6 6 5 6 7 7 7 8 8 8 7 7 7 7 8 8 7
3 4 3 3 3 3 3 3 4 4 3 3 4 2 2 2 3 3 4 2 3 3 3 4 4 5 6 5 5 5 6 6 6 7 7 7 8 8 7 7 6 7 7 7

GFSNGP_con_lsi_006.txt.gz
Lid_Strength_Index
12 10 10 10 10 11 12 12 13 12 11 10 8 7 7 6 6 5 6 5 5 4 4 4 3 3 3 2 2 3 3 3 4 3 2 2 2 2 2 2 2 2 2 2
12 10 9 11 10 9 9 10 10 11 10 8 6 6 7 6 6 6 6 5 5 5 4 4 3 3 3 3 3 3 3 3 3 2 2 1 1 1 2 2 2 2 2 2
14 11 10 12 10 10 9 9 9 12 10 7 8 8 8 7 7 7 6 5 5 5 4 4 3 3 3 3 3 4 4 3 3 2 2 2 1 2 2 2 3 2 2 3
13 13 15 11 8 7 9 9 8 8 8 7 7 7 7 7 7 7 6 6 6 5 4 3 3 3 3 4 4 4 4 3 2 2 2 2 2 2 2 2 2 2 3 2
14 15 13 10 9 9 9 10 8 9 7 7 7 6 7 6 6 6 6 5 4 4 3 3 3 3 4 4 4 5 4 3 2 2 2 2 2 2 2 2 3 3 3 2
14 14 16 12 8 6 7 13 7 7 7 7 7 10 8 6 5 4 4 4 4 4 3 4 4 4 4 5 5 5 4 3 2 2 2 2 2 2 2 2 3 2 3 3
15 16 13 9 8 7 13 12 7 6 7 7 8 7 6 6 6 5 4 3 4 4 4 4 4 3 5 5 5 4 3 2 2 2 2 2 2 2 3 3 4 4 2 2
14 15 16 7 8 12 9 7 6 6 6 6 6 6 5 5 6 6 6 5 3 4 4 3 4 3 5 5 5 4 4 4 3 2 1 1 2 3 3 3 4 4 2 2
14 14 9 7 7 7 6 7 6 6 5 5 6 6 4 5 4 5 4 4 3 4 4 4 3 4 7 7 5 5 5 4 3 4 3 2 2 3 4 4 4 4 3 4
11 9 9 7 6 6 6 6 5 5 5 5 6 5 5 5 5 5 4 4 4 4 6 6 6 6 6 5 5 5 5 5 2 3 3 1 3 3 3 4 5 4 4 5
11 9 8 7 6 5 5 5 5 5 5 5 5 5 5 5 5 5 5 5 5 5 6 7 7 7 6 5 5 5 3 3 3 2 2 5 6 7 6 9 6 5 5 5
13 9 9 8 6 5 7 6 6 6 6 5 4 5 5 5 5 5 5 5 6 6 6 7 6 6 5 4 4 4 5 4 2 2 3 6 8 8 10 10 11 11 9 8
8 6 6 5 5 6 7 7 6 7 7 7 6 5 4 5 4 5 5 5 5 5 5 4 4 4 3 3 3 3 3 3 3 3 5 7 7 7 8 8 9 10 10 9
6 7 9 8 9 6 5 5 5 5 6 6 6 6 6 4 4 4 4 4 4 4 4 4 3 3 2 1 3 2 3 5 5 5 4 5 6 6 7 7 8 7 8 8
7 7 7 7 6 6 6 5 6 6 5 5 4 4 4 5 4 4 4 5 3 3 4 3 4 4 3 3 3 3 3 3 3 3 3 3 4 4 5 6 6 6 6 7
6 6 6 6 7 6 6 6 7 7 7 6 6 5 4 5 4 4 5 4 4 4 3 4 5 4 4 2 2 2 3 3 4 4 5 5 5 5 5 6 5 6 6 6
6 7 7 7 6 6 6 6 6 7 6 6 5 4 3 4 4 5 6 5 5 5 6 6 6 4 2 3 2 2 2 3 2 4 4 5 5 5 5 5 5 6 6 7
5 6 7 7 7 7 6 5 5 5 5 4 4 5 4 4 5 6 5 5 5 6 6 5 5 4 2 2 3 3 4 4 3 4 4 4 5 5 4 4 5 6 7 7
5 5 5 4 4 5 5 5 4 4 5 4 4 5 4 5 5 4 6 6 5 5 4 3 2 3 4 3 3 3 3 3 4 4 4 4 4 4 3 4 4 5 5 6
4 4 4 4 4 4 4 4 4 4 3 4 4 4 5 5 5 5 5 6 5 5 4 3 3 4 4 3 3 5 5 5 5 5 5 6 6 5 5 4 3 4 5 5
5 4 4 4 4 4 3 3 4 4 4 3 5 5 5 4 3 3 4 5 4 3 3 3 3 5 5 5 5 5 5 4 5 5 4 5 5 5 5 5 5 4 4 6
4 4 4 4 4 4 3 4 3 4 5 4 4 4 4 4 3 3 3 4 5 5 4 5 4 4 4 3 6 6 7 5 5 4 4 4 5 5 6 6 6 7 7 7
4 4 4 4 4 4 3 4 4 3 4 4 4 4 4 4 4 4 5 4 4 4 4 5 4 3 3 5 6 7 6 6 7 6 6 5 5 6 7 7 6 7 8 8
4 4 4 4 4 4 5 4 4 3 4 3 3 4 4 4 4 4 4 4 5 5 5 5 5 4 5 7 7 7 7 8 9 8 8 7 7 7 7 7 7 7 8 8
4 4 4 5 5 4 4 4 4 3 3 4 4 4 4 4 4 5 4 4 5 5 6 4 4 4 7 7 7 7 7 9 9 9 9 9 8 8 8 7 7 8 8 8
5 5 5 5 5 4 4 4 5 4 4 4 4 4 4 5 4 4 4 4 4 5 6 6 7 7 7 7 7 7 7 9 9 9 9 9 9 9 8 8 7 7 8 8
5 6 6 5 5 4 3 5 5 5 5 4 4 4 3 3 3 4 4 4 5 5 5 6 7 6 7 7 7 7 7 8 8 8 9 9 10 10 10 8 8 8 9 8

GFSNGP_con_lsi_009.txt.gz
Lid_Strength_Index
11 10 11 11 11 11 12 12 12 12 12 10 9 9 8 7 8 7 7 6 5 4 4 4 3 3 3 2 2 2 3 4 4 4 3 3 2 2 2 2 2 2 2 2
12 11 11 11 11 11 10 12 12 12 12 9 8 8 8 7 7 7 6 5 5 4 4 4 4 3 3 3 2 2 2 3 4 4 3 3 2 1 2 2 2 2 2 2
13 12 11 13 12 11 10 9 10 12 10 9 9 8 7 7 6 6 6 5 5 5 4 4 3 3 3 3 2 3 2 3 4 4 3 3 2 1 2 2 2 2 2 3
13 13 15 12 9 8 9 9 9 9 10 8 8 6 7 7 7 7 6 6 5 5 4 4 3 3 3 2 2 3 3 4 4 3 2 2 2 2 2 1 2 2 3 2
15 15 11 11 9 10 10 11 8 9 8 7 7 7 7 7 7 7 7 7 6 4 4 4 3 3 3 3 3 3 3 4 4 3 3 2 2 2 2 2 2 2 3 3
14 15 15 11 9 7 8 13 7 7 8 7 7 10 9 7 7 6 6 5 5 4 3 4 3 3 4 4 4 4 4 4 4 3 3 3 2 2 2 2 2 3 3 3
15 16 13 10 8 7 13 13 8 7 8 8 9 8 8 7 6 6 5 4 4 4 4 4 3 4 5 4 5 5 4 4 4 4 2 2 2 2 2 3 3 4 3 3
15 16 17 8 8 12 9 8 7 7 7 7 7 6 6 5 6 5 5 5 4 4 4 3 4 4 5 5 5 5 5 6 6 4 3 4 4 4 2 2 3 4 4 3
13 14 9 8 9 7 7 7 7 7 7 6 6 6 5 5 5 5 4 4 3 4 4 4 4 5 5 6 6 5 5 6 5 4 4 3 4 4 3 2 3 4 4 4
12 10 9 8 7 6 6 6 6 6 6 6 6 5 5 5 5 5 4 4 4 4 5 6 5 5 5 6 6 5 5 5 5 4 3 3 3 3 2 2 4 4 4 4
11 9 8 7 7 6 5 5 6 6 5 5 6 6 5 5 5 5 4 4 5 6 6 7 6 6 5 5 4 4 4 4 4 4 4 4 6 5 4 7 7 5 5 5
13 8 9 7 6 5 7 7 7 7 7 7 7 7 5 5 5 5 5 5 5 6 7 7 6 6 5 4 4 4 4 4 3 3 3 4 6 9 11 12 12 12 9 7
9 6 6 6 6 6 7 7 7 7 7 7 7 6 6 6 5 5 5 5 6 5 6 6 6 5 4 4 3 3 5 4 3 3 4 6 6 8 8 9 11 12 11 10
6 8 8 7 8 6 7 6 7 7 7 7 6 6 6 6 6 4 5 4 5 6 5 5 5 4 3 3 4 4 3 4 3 4 4 6 6 6 6 7 8 8 10 9
8 7 7 7 7 8 7 7 8 8 8 7 6 6 5 5 5 4 4 3 4 5 5 4 3 3 2 2 3 3 4 4 5 4 5 6 6 5 6 7 8 8 7 8
8 7 8 8 8 7 7 7 8 7 7 7 6 6 5 4 4 4 5 4 5 4 4 3 4 4 4 4 5 5 4 4 4 4 4 5 4 4 6 6 7 7 7 7
8 8 8 8 7 7 7 7 7 6 6 6 6 6 4 4 4 4 6 5 4 4 5 5 5 5 5 4 4 3 4 4 3 5 5 6 6 5 5 5 6 6 7 7
7 7 7 7 7 6 6 6 6 6 6 5 4 5 4 4 5 6 6 6 5 6 5 5 5 5 4 3 3 3 4 4 4 5 5 5 4 5 5 5 5 5 6 7
4 5 4 4 4 5 5 5 5 4 4 4 4 4 4 4 5 5 6 6 6 6 6 5 3 2 4 3 4 5 5 4 4 5 5 5 5 5 5 5 5 5 5 6
4 4 4 4 4 4 4 4 4 4 4 4 4 5 5 4 5 5 6 6 6 5 4 4 4 5 5 4 4 5 5 4 4 5 5 5 5 5 5 6 5 5 5 6
5 4 5 4 4 4 4 4 4 4 4 5 5 5 5 5 5 5 5 6 4 4 4 3 4 5 5 4 5 6 6 6 5 6 5 6 6 6 6 5 4 4 5 5
5 5 4 4 4 4 4 5 4 4 5 5 5 5 5 5 4 4 4 4 4 4 4 4 4 4 4 4 6 7 6 5 4 5 5 5 5 5 5 5 5 5 5 7
4 4 4 4 4 4 4 4 4 4 4 4 4 5 5 5 5 5 5 4 4 4 4 5 4 3 3 6 7 7 7 8 7 6 6 5 5 5 6 6 6 6 7 7
5 5 5 4 5 5 5 5 4 4 5 4 4 5 5 5 5 4 4 4 5 5 4 4 4 4 5 7 7 8 8 8 9 9 8 7 7 7 8 8 7 7 8 8
5 5 5 6 6 6 6 5 4 4 4 4 4 3 4 5 4 5 4 4 5 5 5 4 4 4 7 7 8 8 8 9 9 10 9 8 8 8 8 8 8 8 8 8
5 5 6 6 7 7 6 5 5 5 5 5 4 4 4 5 5 5 5 5 5 6 6 6 5 6 7 7 7 7 8 8 10 10 10 10 10 9 9 9 8 9 9 8
6 7 7 7 6 6 5 5 5 5 5 5 5 4 3 3 4 5 5 5 5 5 6 6 6 6 7 7 8 8 8 8 9 9 9 10 10 10 10 9 9 8 9 9

GFSNGP_con_lsi_015.txt.gz
Lid_Strength_Index
9 8 8 8 8 8 9 8 10 8 9 6 6 6 5 5 5 5 5 4 4 4 4 3 3 3 2 2 1 1 1 1 2 1 0 1 2 2 1 1 1 1 0 0
10 8 8 9 8 8 8 8 8 8 8 5 5 5 5 5 5 5 5 4 4 4 3 3 3 3 2 2 2 1 2 2 1 1 1 1 2 1 1 2 1 1 1 1
12 9 9 11 8 8 7 7 7 9 7 5 6 6 5 5 5 5 5 4 4 4 3 3 3 2 2 2 1 2 2 2 1 1 1 2 2 2 2 3 2 1 1 1
12 11 14 9 6 7 7 6 6 6 5 5 5 4 4 4 4 5 4 4 3 3 3 2 2 2 1 1 2 2 2 2 1 1 1 1 1 2 2 1 2 1 1 1
13 12 10 9 8 8 8 8 5 6 5 5 5 5 5 4 3 3 3 3 3 2 2 2 2 2 2 2 2 2 2 2 1 1 1 2 2 3 2 1 1 1 1 0
12 14 14 11 8 7 7 10 6 6 6 6 6 8 6 4 3 3 3 3 3 2 2 2 2 2 2 2 2 2 2 2 1 1 1 2 2 3 1 1 1 1 1 1
14 15 12 9 8 7 12 10 7 6 6 6 7 6 5 4 4 3 3 3 2 2 3 2 2 2 3 2 3 2 1 1 1 1 1 3 2 1 1 1 1 2 2 1
14 15 16 7 8 11 8 6 6 6 6 6 5 5 4 4 4 4 4 3 3 3 3 2 2 2 3 3 2 1 1 2 2 1 1 1 2 1 1 1 2 2 2 2
12 13 8 6 7 6 5 6 5 5 5 5 5 5 4 5 4 4 4 4 3 3 3 2 2 2 3 2 2 2 2 2 2 1 1 1 1 2 2 1 2 2 2 3
11 9 8 7 5 5 4 5 4 4 4 4 6 5 5 4 4 4 3 3 3 3 3 3 2 2 2 2 1 2 2 2 2 2 2 1 1 1 2 2 2 2 2 3
10 9 8 7 6 5 5 5 5 5 4 4 5 5 5 5 4 4 3 3 3 3 3 3 2 2 1 1 1 2 2 2 2 2 2 3 5 3 1 1 2 2 2 2
11 8 8 7 5 5 6 6 5 5 5 4 4 4 3 4 4 3 4 3 3 3 3 3 2 2 1 1 1 2 2 2 2 2 2 3 3 5 11 10 11 11 10 4
8 6 7 6 7 6 7 7 6 6 6 6 5 3 3 4 4 4 3 3 3 3 3 2 2 2 1 1 1 1 2 2 2 3 2 2 2 2 3 7 12 13 12 11
5 6 7 7 7 6 6 7 7 6 6 6 5 5 4 3 3 3 3 3 2 2 2 2 2 2 1 1 1 1 1 6 2 2 2 2 2 2 2 2 3 4 10 8
7 6 6 5 6 6 6 5 7 7 6 6 5 5 4 5 4 3 3 2 2 2 2 2 2 2 1 1 1 1 1 1 1 1 1 2 2 2 2 2 2 2 3 6
7 7 7 7 7 7 6 6 6 6 5 4 4 4 4 3 2 2 2 2 3 3 3 2 2 1 1 1 1 1 1 2 2 1 2 2 2 2 2 2 2 2 2 2
7 7 7 7 7 6 6 5 5 4 4 4 3 3 3 3 3 2 2 2 2 2 2 2 2 1 1 1 1 1 1 1 2 1 1 1 1 2 2 2 2 2 2 1
5 5 4 4 5 5 4 4 3 3 4 3 3 3 3 3 4 3 3 3 2 2 2 1 1 1 1 1 1 1 1 1 1 1 1 2 2 1 2 2 2 2 1 2
4 4 4 4 3 4 4 4 3 3 3 3 3 3 3 3 3 3 2 3 3 3 2 1 3 1 1 1 1 1 1 1 1 1 1 2 2 1 2 2 2 1 1 1
4 4 3 3 3 3 4 3 3 3 2 2 3 3 3 3 3 3 2 3 2 2 1 1 1 1 1 1 1 0 1 1 1 1 1 2 2 2 2 3 1 1 1 1
4 3 3 3 3 3 3 3 3 3 3 2 3 3 3 2 2 2 3 3 2 1 1 1 1 1 0 1 1 0 0 1 1 1 2 2 2 2 2 1 1 1 1 1
3 4 3 3 3 3 3 2 2 2 2 2 2 2 3 3 2 2 2 2 1 4 1 1 1 2 1 2 1 0 0 0 0 0 1 1 1 1 1 1 1 1 1 1
3 3 3 3 3 3 2 2 2 2 3 2 2 2 3 2 2 3 3 1 0 2 0 1 2 3 3 0 1 2 2 2 2 1 0 1 1 1 1 1 1 1 1 1
3 3 3 2 2 3 3 3 2 2 2 2 2 2 2 2 2 1 0 2 4 3 0 1 2 4 4 0 0 1 1 1 1 1 2 6 2 1 1 1 1 0 0 1
3 3 3 3 3 3 3 2 2 2 2 2 2 1 1 0 2 1 1 0 4 2 1 4 3 4 1 0 0 0 0 1 1 2 2 3 2 2 1 1 1 1 1 1
3 3 3 2 2 2 2 2 2 2 2 2 2 1 1 0 0 1 1 2 0 2 1 0 0 1 0 0 0 1 1 1 2 2 3 3 3 3 3 2 2 2 3 2
3 5 2 2 3 3 3 3 3 3 3 2 2 1 1 1 1 1 2 1 1 1 1 1 0 1 0 0 0 0 1 1 3 1 2 2 3 3 3 3 2 2 3 3

GFSNGP_con_lsi_021.txt.gz
Lid_Strength_Index
7 7 7 7 7 7 8 7 9 8 8 6 5 5 4 3 3 3 3 2 3 3 2 2 2 2 2 1 1 1 1 1 1 1 1 1 1 0 0 0 0 0 0 0
8 7 7 8 7 7 7 7 7 7 7 5 4 4 4 3 3 3 3 2 2 2 2 2 2 2 2 2 1 1 1 1 1 1 1 1 1 1 1 1 0 0 0 1
10 8 8 10 8 7 7 6 7 8 6 4 5 4 4 4 3 3 3 3 2 2 3 2 2 2 2 2 1 1 1 1 1 1 1 1 1 1 1 1 1 1 1 1
10 9 14 8 5 6 6 6 5 5 5 5 4 4 3 3 3 3 3 2 2 2 2 2 2 2 1 1 1 2 2 2 1 1 1 1 1 1 1 1 1 1 1 0
11 11 9 8 7 7 8 8 5 5 5 4 4 3 4 3 2 2 2 2 2 1 2 2 2 1 2 2 2 2 2 2 1 1 2 1 2 2 1 1 1 1 1 0
10 13 14 9 7 6 6 9 5 5 5 5 4 6 5 3 2 2 2 1 2 1 2 2 2 1 2 2 2 2 2 2 1 1 1 2 1 1 1 1 1 1 1 0
11 12 9 7 6 5 11 10 6 5 5 5 6 4 2 2 2 2 2 2 1 1 2 2 1 1 2 2 3 2 1 1 1 1 1 1 1 1 1 2 1 1 1 1
10 12 13 6 6 9 8 5 5 5 5 5 4 3 2 3 3 3 2 2 2 2 2 2 1 2 2 2 1 1 1 1 1 1 1 1 1 1 2 2 2 2 2 2
8 9 6 5 6 5 5 5 5 4 4 4 4 4 4 4 3 3 3 2 2 2 2 2 2 2 3 2 1 1 1 2 2 1 1 1 2 2 2 2 2 2 2 2
9 8 7 6 5 4 4 5 4 4 4 4 4 4 4 4 3 3 3 3 2 2 3 3 2 2 2 1 1 2 2 2 2 2 2 1 2 2 2 2 2 2 2 2
9 7 6 6 5 4 4 3 4 4 4 4 4 5 4 4 3 3 3 2 2 3 3 3 2 2 1 1 1 2 2 2 2 2 2 2 5 3 2 4 5 2 2 1
11 6 7 6 4 4 4 4 3 4 4 3 4 4 4 4 3 3 3 2 2 3 3 2 2 2 1 1 1 2 2 2 2 2 2 2 2 4 13 12 13 12 11 5
9 5 5 4 4 5 4 4 4 3 3 3 3 3 3 3 3 3 3 3 3 3 2 2 2 2 1 1 1 2 2 2 2 2 2 2 2 2 3 5 11 12 11 11
4 5 6 5 6 5 5 5 5 4 4 4 4 3 4 3 3 2 2 2 2 2 2 2 2 2 1 1 1 1 1 4 1 1 1 1 1 1 1 2 2 2 8 7
5 4 4 4 4 4 5 6 6 6 4 4 4 4 4 4 4 3 2 1 1 2 2 2 2 2 1 1 1 1 1 1 1 1 1 1 1 1 1 1 2 2 3 6
6 5 5 5 5 4 5 6 6 6 5 5 5 4 4 4 4 3 2 1 2 3 2 2 2 1 1 1 1 1 1 3 2 1 1 1 1 1 1 2 2 2 2 1
7 8 7 8 7 6 6 5 5 5 5 4 3 3 3 4 3 2 2 2 2 2 2 2 2 1 0 1 1 1 1 1 1 1 1 1 1 1 1 1 2 2 2 2
6 6 5 5 5 5 5 4 5 4 3 3 2 3 3 3 3 3 3 3 3 3 2 1 1 1 0 0 0 1 1 1 1 1 1 1 1 1 1 1 1 2 2 4
4 4 4 4 4 4 4 4 4 3 3 2 2 3 3 3 2 3 2 2 3 3 2 1 2 1 0 1 1 1 1 2 1 1 1 2 1 1 1 1 2 2 2 2
4 3 3 3 3 3 3 3 3 3 2 2 2 3 3 2 2 2 2 3 2 2 1 1 1 1 1 1 1 1 1 1 2 2 2 2 1 2 1 3 1 2 2 2
5 4 4 4 3 2 2 2 3 3 3 2 3 3 3 2 1 2 3 3 2 1 1 1 1 1 0 0 1 0 0 1 2 2 2 2 1 1 2 2 1 1 1 1
4 4 4 3 3 3 2 2 2 2 2 3 2 2 2 2 2 2 1 2 1 4 1 1 0 2 1 2 0 1 1 1 1 2 2 1 2 2 2 1 1 1 1 1
2 3 3 2 2 2 2 1 1 2 2 2 2 2 2 2 2 3 4 1 1 2 1 1 2 1 1 0 -0 -0 -0 -0 0 1 1 0 1 1 1 1 1 1 1 1
2 2 2 1 1 2 2 2 2 2 1 1 1 1 1 2 2 1 1 2 2 1 1 1 1 2 4 0 0 -0 -0 0 0 0 0 4 0 0 0 0 1 0 0 1
2 2 2 2 2 2 1 1 1 1 1 1 1 0 0 0 1 1 1 1 2 1 1 3 3 2 0 0 0 0 0 0 0 0 -0 0 0 1 1 1 0 0 0 0
2 2 2 1 2 2 2 1 2 2 1 1 1 1 0 0 0 1 0 1 -0 1 0 1 0 0 0 0 0 0 0 0 0 0 0 0 0 0 1 1 1 0 0 0
2 4 2 2 2 2 2 2 2 2 2 1 2 1 1 1 1 1 2 1 1 0 0 0 0 1 1 0 0 0 0 0 2 0 0 0 0 0 0 1 1 1 1 1

GFSNGP_con_lsi_024.txt.gz
Lid_Strength_Index
8 7 7 8 8 8 8 8 10 8 8 7 6 6 5 4 3 3 3 4 3 3 2 3 3 2 2 2 2 1 2 2 2 1 1 1 1 1 1 1 1 1 1 1
9 7 8 8 7 7 7 8 8 7 8 5 4 4 5 5 4 4 4 3 3 3 3 2 3 3 2 2 2 1 2 2 2 2 1 1 1 1 1 1 1 1 1 1
11 8 8 10 8 8 7 7 7 9 7 5 5 5 4 5 4 4 4 3 3 3 3 3 2 2 3 2 2 2 2 2 2 2 2 2 1 1 1 1 1 1 1 1
11 10 15 8 6 6 7 6 6 6 5 5 5 4 4 3 4 4 3 3 2 2 3 2 2 2 2 2 2 2 2 2 2 2 2 2 2 2 2 1 1 1 1 1
12 12 9 8 7 7 7 8 5 6 5 5 4 4 4 3 3 3 3 3 2 2 2 2 2 2 2 2 2 2 3 2 2 2 2 2 2 2 2 2 2 2 1 1
10 13 14 9 6 5 6 10 5 6 6 5 5 8 6 3 3 2 2 2 2 2 2 2 2 2 2 3 3 3 2 2 2 2 2 2 2 2 1 1 2 1 1 1
11 12 10 7 6 5 12 10 6 6 5 5 6 6 4 3 3 2 2 2 2 0 1 2 2 2 3 3 3 2 2 2 2 2 2 2 2 1 1 2 2 2 2 1
11 13 14 6 6 9 7 5 5 5 5 5 5 4 4 3 3 3 3 2 2 1 1 2 2 3 3 3 2 2 2 2 2 2 2 2 2 2 2 2 2 2 2 2
9 10 8 6 7 5 5 5 5 5 4 4 4 4 4 4 3 3 3 3 2 2 3 2 2 2 3 3 2 2 2 2 2 2 1 1 2 2 2 2 2 3 3 3
9 7 7 6 5 4 4 4 4 4 4 4 4 4 4 4 3 3 3 3 3 3 4 3 2 2 2 2 2 2 2 2 2 2 2 2 2 2 2 2 3 3 3 3
8 7 7 6 5 4 4 4 5 4 5 5 5 5 4 4 4 4 3 3 3 4 4 3 3 2 2 2 2 2 2 2 2 2 2 4 7 6 2 5 5 2 2 2
12 9 8 7 5 4 5 5 4 4 5 4 4 5 5 4 4 4 4 3 4 4 4 3 3 2 2 1 2 2 3 3 3 2 2 4 5 7 14 13 14 14 11 4
9 7 7 5 4 4 4 4 4 4 3 4 3 4 4 4 4 4 4 3 3 3 3 3 3 2 2 2 2 2 3 3 2 3 2 2 2 3 6 9 12 13 13 10
6 6 8 6 6 5 4 4 5 4 5 5 4 4 3 3 3 3 3 3 2 3 3 2 3 3 2 1 1 2 2 5 2 2 2 2 2 2 2 3 3 4 9 8
6 5 6 5 4 5 4 5 5 5 4 4 3 3 3 3 3 3 2 2 2 2 3 2 3 3 1 1 2 2 2 2 2 2 2 2 2 2 2 2 2 3 4 6
5 5 5 5 5 4 4 5 6 7 6 4 4 3 3 2 2 3 2 3 3 4 3 3 2 2 1 1 1 1 1 4 2 2 2 2 2 2 2 2 2 2 2 3
7 7 6 6 5 5 6 5 4 5 5 5 4 3 3 4 3 3 3 3 3 3 2 2 2 1 1 1 1 2 2 1 4 2 2 2 2 2 2 2 2 2 2 2
5 5 5 5 5 4 4 4 4 4 4 3 3 3 3 3 4 4 3 3 3 3 2 2 1 1 0 0 1 1 1 1 1 2 2 2 2 1 1 2 2 2 2 3
4 4 4 4 4 4 4 4 4 3 3 3 3 4 3 3 3 3 3 3 3 4 3 1 2 1 1 2 2 1 2 2 2 2 2 3 2 1 2 2 2 2 2 3
4 4 4 4 3 3 4 3 3 3 3 3 3 3 4 3 3 3 3 3 3 2 1 1 1 1 1 0 1 1 1 2 2 2 2 2 2 2 2 3 2 2 2 1
4 4 4 4 4 3 3 3 3 3 3 3 3 3 3 2 3 2 2 3 2 1 1 1 1 3 0 1 1 1 1 2 2 2 2 2 2 2 2 2 1 1 2 2
4 4 3 3 4 4 3 3 3 3 3 3 3 3 3 3 3 3 2 3 1 4 2 2 2 3 2 2 2 1 1 1 1 1 1 1 1 2 2 2 2 2 1 2
3 3 3 3 3 3 2 2 2 2 2 2 2 2 3 3 3 3 4 1 1 3 2 3 2 2 3 1 1 1 1 1 1 1 1 1 2 1 1 2 1 1 1 1
4 3 3 2 2 2 3 2 2 2 1 1 1 1 2 3 2 1 1 2 2 2 2 1 2 2 3 1 1 1 1 1 1 1 1 4 1 1 1 1 1 1 1 1
3 3 3 3 3 3 2 1 1 2 2 1 1 1 0 0 2 1 1 1 2 1 1 3 3 2 1 1 1 1 1 1 1 1 1 1 1 1 1 1 1 1 1 1
3 3 2 2 2 2 2 2 3 2 2 2 2 1 1 1 1 1 1 1 1 1 1 1 1 1 1 1 1 1 1 1 1 1 1 1 0 1 1 1 1 1 0 0
2 4 2 2 2 2 2 2 2 2 2 2 2 1 1 1 1 1 2 1 1 1 1 1 1 1 1 1 1 1 1 1 3 1 1 1 1 1 0 0 0 0 1 1

GFSNGP_con_lsi_027.txt.gz
Lid_Strength_Index
10 9 9 9 9 9 11 11 13 11 11 9 8 7 7 6 6 5 5 5 5 4 4 3 3 3 3 2 2 2 2 2 2 2 1 1 1 1 1 1 1 1 1 1
10 9 9 10 9 9 9 9 10 10 10 8 7 6 6 6 5 6 6 5 5 5 4 3 3 3 3 3 2 2 2 3 2 2 2 2 2 1 1 1 1 2 2 2
13 10 10 12 10 9 9 8 9 11 9 7 7 7 7 6 6 5 5 5 5 4 4 3 3 3 3 3 2 2 2 2 2 2 2 2 2 2 2 2 1 2 2 2
13 12 16 10 8 8 8 8 8 8 8 7 6 6 6 6 6 6 5 4 4 4 4 4 3 2 2 2 2 2 3 2 2 2 2 2 2 2 2 2 2 2 3 3
15 14 12 10 8 9 10 10 7 8 8 7 6 6 7 5 5 6 5 6 4 4 3 3 3 2 2 3 3 3 3 3 2 2 2 2 2 2 2 2 2 2 2 2
13 15 15 11 7 6 7 13 8 7 8 8 7 10 9 6 5 5 5 4 4 3 3 3 3 3 3 3 3 3 3 3 2 2 2 2 2 2 2 2 2 2 3 3
13 14 12 9 7 6 13 13 8 7 7 7 9 8 6 5 5 5 5 5 4 3 3 4 3 3 3 3 3 3 2 2 2 2 2 2 2 2 2 2 3 3 3 3
13 15 16 8 7 10 10 8 7 7 7 7 7 7 6 5 5 5 6 4 4 4 4 3 3 3 4 4 3 2 2 2 2 2 2 2 2 2 3 3 3 4 3 3
12 13 9 7 8 7 6 7 7 7 7 6 6 6 6 6 5 5 5 5 4 4 4 4 3 3 4 3 3 2 3 3 2 2 2 2 3 3 3 4 4 3 3 3
11 9 8 7 7 6 6 7 6 6 6 6 7 6 6 6 5 5 5 5 4 4 4 4 3 3 3 3 2 3 3 3 3 4 4 4 3 3 4 4 3 3 3 3
11 10 8 7 7 6 6 5 5 5 5 6 6 6 6 6 5 5 5 4 4 4 4 4 3 3 3 2 2 3 3 4 4 5 8 10 13 9 4 9 5 3 3 2
13 9 9 9 8 5 6 6 5 6 6 6 6 6 6 6 5 5 5 4 4 4 4 4 3 3 3 3 3 4 4 4 5 6 7 8 9 10 14 14 14 13 10 5
9 7 7 7 7 7 6 7 6 6 6 6 6 5 5 6 5 4 4 4 4 4 4 3 3 3 3 3 3 3 4 3 4 5 5 6 6 7 9 10 13 15 14 11
6 6 8 7 7 5 6 6 5 5 4 5 6 6 5 5 5 4 4 4 3 3 3 3 3 3 2 2 2 2 3 6 3 3 4 4 5 6 7 7 7 8 12 11
6 5 6 5 5 5 5 6 6 5 5 5 5 5 5 5 5 4 3 3 3 3 3 3 3 3 3 3 2 2 3 3 2 2 2 3 2 4 5 4 5 7 9 10
6 5 5 6 6 5 5 6 6 6 5 5 5 5 5 4 4 4 3 3 4 4 4 3 3 3 3 2 3 4 5 5 4 3 4 2 3 3 3 3 6 7 7 6
7 8 7 6 6 6 5 5 5 5 5 5 4 4 4 4 4 4 4 3 3 3 3 3 3 2 2 2 3 3 4 4 4 3 4 3 4 4 3 3 4 4 4 5
6 5 5 5 5 5 5 5 4 4 5 4 4 4 4 4 5 4 4 3 4 4 3 2 3 2 2 3 3 3 3 4 3 3 3 3 3 3 2 2 3 3 4 5
5 6 5 4 4 4 4 5 4 4 4 4 4 4 4 4 4 4 3 4 4 5 5 3 2 2 2 2 2 3 2 2 3 3 3 3 3 3 4 3 3 3 4 5
4 4 4 4 4 4 4 4 4 4 3 3 3 4 4 4 3 3 3 4 4 3 2 2 2 2 2 2 2 3 2 2 2 3 3 2 3 3 3 4 4 3 5 5
4 4 4 4 4 4 3 3 4 4 3 3 4 4 4 3 3 3 4 4 3 3 3 4 4 3 4 3 3 2 2 3 3 3 3 3 3 2 3 3 3 3 3 3
4 4 4 4 4 4 3 3 3 3 4 4 4 3 4 4 3 3 3 4 4 5 5 5 5 4 4 2 3 2 2 2 2 3 3 2 2 3 3 3 3 3 3 2
4 4 4 4 4 4 4 3 3 3 3 3 3 3 3 3 3 4 4 3 3 4 5 4 3 3 4 4 4 3 3 4 3 2 3 3 3 3 3 3 3 3 3 3
4 4 4 4 3 4 4 4 3 3 3 3 3 3 3 3 3 2 3 4 3 3 3 4 4 4 3 3 4 4 4 4 4 4 4 4 3 4 4 2 3 3 2 3
4 3 4 3 4 5 3 3 4 3 3 4 4 4 3 2 3 2 2 3 4 4 2 4 3 2 3 3 3 3 2 3 3 3 3 4 4 4 4 4 4 4 4 3
3 4 4 4 5 4 5 4 4 4 3 3 4 3 3 2 2 2 2 2 2 3 1 2 2 2 2 3 2 2 2 2 2 2 2 2 3 2 3 4 4 4 4 3
4 5 4 5 5 5 5 5 5 5 4 3 4 3 3 2 2 2 3 3 3 3 3 3 2 3 3 3 3 2 2 2 4 1 2 2 1 1 1 2 2 2 2 3

GFSNGP_con_lsi_030.txt.gz
Lid_Strength_Index
14 11 10 10 10 10 12 11 13 13 13 12 10 8 7 6 6 6 6 5 5 4 4 3 3 3 3 2 2 2 2 2 2 2 1 1 1 1 1 1 1 2 1 2
14 11 11 11 10 10 10 10 11 13 13 10 9 8 8 6 6 6 7 6 5 4 3 4 3 3 3 3 2 2 2 3 2 2 2 2 2 1 1 1 1 2 2 2
17 12 11 13 11 10 10 9 10 13 11 10 9 7 7 6 6 6 7 6 5 4 4 3 3 3 3 3 2 2 3 2 2 2 2 2 2 2 2 2 2 2 3 3
17 15 16 11 9 8 10 10 9 10 10 9 8 8 5 6 6 6 7 5 5 4 4 3 3 3 2 2 2 3 3 3 2 2 2 2 2 2 2 2 2 2 3 3
17 16 13 10 10 10 11 11 8 9 9 8 8 7 8 6 6 8 7 7 5 4 4 4 3 2 3 3 3 3 3 3 2 2 2 2 2 2 2 2 2 2 2 3
14 16 17 12 8 6 8 13 8 8 8 7 8 11 10 6 5 6 5 5 6 3 3 3 3 3 3 3 3 3 3 3 2 2 2 2 2 2 2 2 2 2 2 3
14 14 13 9 7 7 12 12 8 8 7 7 9 7 6 5 6 6 4 5 5 6 5 3 3 2 3 3 3 2 2 2 2 2 2 2 2 2 2 2 2 2 3 3
13 15 16 8 9 11 9 8 7 7 7 7 7 7 6 6 6 5 6 4 4 5 5 5 3 3 3 3 2 2 2 2 2 2 2 2 2 2 2 2 3 3 4 4
13 14 9 8 9 8 7 8 8 8 7 7 7 7 6 6 6 5 5 5 4 4 5 4 3 3 4 3 2 2 3 3 3 2 2 2 2 3 3 3 3 4 4 5
12 9 10 8 8 7 6 7 6 6 6 6 7 6 6 6 6 5 5 5 4 4 5 5 4 3 3 3 2 3 3 3 3 3 3 2 2 2 3 3 3 4 5 5
11 9 9 8 8 7 6 6 6 6 6 6 6 7 6 6 6 5 5 5 5 4 4 4 4 4 3 3 2 3 3 3 3 3 5 10 11 7 4 7 4 4 3 3
13 9 9 9 8 6 7 8 7 7 7 7 7 8 6 6 6 5 5 4 4 5 5 4 4 4 4 3 3 3 4 5 6 8 9 9 10 11 14 14 11 11 9 5
9 7 7 7 7 7 7 6 6 7 7 7 7 7 6 7 6 5 4 4 4 4 4 4 3 3 3 3 4 5 5 6 6 6 7 7 7 7 8 9 12 14 14 12
6 6 8 7 8 6 6 6 6 6 6 6 6 6 5 5 5 5 5 4 4 4 4 3 3 3 2 2 4 4 5 8 5 5 5 4 4 5 6 5 7 9 14 13
6 5 6 5 5 5 5 5 6 6 5 6 6 5 5 5 5 5 4 3 3 3 3 3 3 3 2 3 3 3 3 4 4 4 4 6 6 6 6 7 7 10 10 11
6 6 6 6 6 6 5 5 6 6 5 5 6 5 6 6 6 5 4 4 4 5 4 3 3 2 3 4 5 5 3 5 4 3 4 5 5 6 6 7 7 7 6 7
7 8 7 7 6 6 6 5 5 5 5 6 5 4 4 6 6 7 7 5 4 5 5 5 4 4 3 4 4 6 5 4 4 3 3 3 4 4 5 6 6 7 7 8
5 5 5 5 6 5 5 5 4 4 5 4 4 4 4 5 6 6 5 7 7 6 6 5 4 4 4 4 5 5 4 5 5 5 5 4 3 3 3 5 5 6 6 8
5 5 5 5 4 5 5 5 4 4 4 4 4 5 4 4 4 5 4 4 4 4 5 4 3 5 5 3 3 4 4 5 5 5 5 5 4 3 3 4 4 5 5 6
5 4 4 4 4 5 5 5 5 4 4 4 4 4 5 4 3 3 4 5 4 3 3 2 2 2 3 3 2 3 3 3 3 4 4 4 4 4 3 5 3 4 4 6
5 4 4 4 4 4 5 5 5 6 5 4 4 4 5 5 3 4 6 6 6 4 5 4 3 4 4 3 3 3 2 3 3 3 4 3 4 3 3 3 3 3 4 5
5 5 5 5 5 6 5 5 5 4 4 4 3 4 4 4 4 5 6 8 7 7 7 7 6 5 6 3 4 2 2 2 3 3 4 4 4 4 4 4 4 4 5 5
6 6 6 5 6 7 6 6 5 5 5 5 4 4 4 4 5 5 6 5 6 6 6 6 5 4 4 4 5 5 3 3 3 4 4 3 4 4 4 4 4 3 3 3
7 7 7 7 8 7 7 7 5 5 5 5 4 3 4 4 4 4 5 4 4 4 4 4 3 4 4 4 4 4 5 5 6 4 4 6 5 5 4 4 4 4 4 4
6 7 7 8 8 8 8 7 6 5 6 6 6 5 5 5 5 4 5 5 5 4 3 4 4 4 4 4 3 3 4 4 4 4 4 6 6 6 6 6 4 4 4 3
7 7 8 9 9 7 7 7 8 7 6 7 6 5 4 4 6 5 5 6 6 6 5 6 6 5 4 3 3 3 3 3 3 3 3 3 3 2 3 4 5 5 5 5
7 8 8 8 8 8 8 8 8 8 7 7 7 6 6 6 5 6 6 6 6 5 6 6 6 6 7 6 5 5 4 4 5 3 3 3 3 3 3 3 4 4 4 5

GFSNGP_con_lsi_033.txt.gz
Lid_Strength_Index
15 14 13 13 12 11 14 13 14 13 14 12 11 10 8 6 6 6 6 5 5 5 5 5 4 3 3 2 2 2 2 2 2 2 1 1 1 1 1 1 1 2 3 3
16 13 13 13 12 12 12 11 13 13 14 11 10 10 9 8 7 6 6 6 6 5 4 4 3 3 3 3 3 2 2 3 2 2 2 2 2 1 1 1 1 2 2 3
19 15 14 15 13 12 11 11 11 13 13 11 11 11 10 9 7 6 6 5 7 7 5 4 3 3 3 3 2 2 3 2 2 2 2 2 2 2 2 2 1 2 2 2
19 17 19 13 10 9 11 11 11 11 11 10 9 9 8 8 7 6 6 7 7 6 6 4 3 3 2 2 2 3 3 3 2 2 2 2 2 2 2 2 2 2 2 2
19 18 15 12 11 11 12 12 10 10 9 10 9 8 9 6 6 5 6 6 6 5 5 4 3 2 3 3 3 3 3 3 2 2 2 2 2 2 2 2 2 2 2 2
17 19 18 13 9 7 8 13 9 9 9 9 9 11 9 6 5 6 8 6 6 5 4 4 4 3 3 3 3 3 3 3 2 2 2 2 2 2 2 2 2 2 2 2
16 16 15 10 9 8 13 12 8 7 8 10 10 9 8 5 6 5 5 5 7 6 4 3 4 3 3 3 4 3 2 2 2 2 2 2 2 2 2 2 2 2 2 2
15 16 18 9 9 14 11 8 8 7 7 7 7 6 6 5 6 6 5 5 5 7 7 5 3 3 3 4 3 2 2 2 2 2 2 2 2 2 2 2 3 3 3 2
12 13 10 9 8 7 7 8 8 7 7 7 7 7 7 7 6 6 5 5 4 5 5 4 4 3 4 3 2 2 3 3 3 2 2 2 2 3 3 2 3 3 3 3
12 10 9 8 7 7 7 7 7 6 7 6 7 7 7 6 6 6 5 5 4 4 5 4 3 3 3 3 3 3 3 3 3 3 3 2 2 2 3 3 3 3 4 3
11 10 8 8 7 8 7 7 7 7 7 7 6 7 6 6 6 5 5 5 5 4 4 4 4 4 4 3 4 4 3 3 3 3 3 6 11 6 2 6 3 4 3 3
13 9 9 9 7 7 8 9 9 8 8 8 8 8 7 6 6 5 5 5 4 4 4 4 4 4 4 4 4 3 4 5 7 7 7 8 8 10 14 12 12 12 10 6
9 7 7 6 6 6 8 7 7 7 7 7 6 6 6 6 6 6 5 5 4 4 4 3 4 3 3 4 5 5 7 7 7 7 6 6 7 7 6 9 12 13 13 11
6 6 8 7 7 6 6 6 7 6 6 6 6 5 5 5 5 5 5 4 4 4 4 4 3 3 3 3 2 3 3 6 3 3 3 5 5 5 4 4 4 7 12 12
6 6 6 6 5 5 5 5 6 6 7 7 6 7 6 5 5 4 4 4 4 4 4 5 4 4 2 3 3 3 3 3 3 3 3 3 3 3 3 3 3 7 10 12
6 6 6 6 6 6 6 6 6 6 5 6 7 7 8 7 6 6 5 5 5 6 5 6 6 5 5 4 3 3 3 5 4 4 4 3 3 4 5 6 7 6 6 9
8 8 7 7 6 6 6 5 5 6 6 5 5 6 7 7 7 7 7 7 7 6 6 5 6 5 5 5 5 4 4 3 4 3 4 4 4 5 6 6 6 6 6 8
5 5 5 5 6 6 6 5 5 5 5 4 4 4 5 7 7 6 5 5 6 6 6 5 5 5 5 5 5 5 5 5 4 4 5 5 5 6 6 6 6 6 8 10
5 5 5 5 5 5 5 5 4 4 4 4 4 5 4 5 4 4 4 4 4 5 5 5 4 5 5 3 4 4 5 5 5 5 5 5 4 4 5 6 6 6 7 8
5 4 4 4 4 4 5 5 5 4 4 4 4 4 4 4 4 4 4 4 4 4 4 4 4 4 4 4 3 4 4 4 4 5 5 5 4 4 4 6 5 6 6 7
5 5 5 5 6 5 5 6 5 4 4 4 5 5 5 5 5 5 6 6 5 7 7 6 6 6 5 4 3 2 3 3 3 3 4 4 4 4 4 3 3 4 4 6
6 6 7 7 7 6 6 5 5 5 4 4 4 4 5 6 6 7 8 9 8 7 8 7 6 5 6 4 5 2 2 2 3 3 4 3 4 3 3 3 3 3 3 4
9 9 9 8 7 7 6 6 6 6 5 5 5 5 5 6 6 6 7 6 7 6 6 7 6 6 5 6 5 6 4 3 3 2 3 4 4 4 3 4 4 4 4 5
9 9 9 9 8 9 9 7 7 7 6 5 5 6 5 6 6 6 6 6 6 6 6 6 6 5 5 5 5 4 4 5 6 6 4 7 6 5 5 4 4 4 4 5
8 8 8 9 9 9 9 8 8 8 7 7 7 7 6 7 7 8 7 7 7 7 7 6 5 5 5 5 4 4 4 4 4 4 4 6 7 7 7 8 8 7 7 6
9 9 8 9 9 8 7 7 8 8 7 8 8 8 8 7 7 7 8 8 9 8 9 9 8 9 8 7 6 4 4 4 4 4 4 3 4 4 5 5 6 6 6 6
8 8 8 8 8 8 8 8 8 9 8 8 8 8 7 7 7 7 8 8 8 8 9 9 9 8 9 8 7 7 6 4 6 4 4 4 4 4 5 5 6 6 6 7

GFSNGP_con_lsi_036.txt.gz
Lid_Strength_Index
16 14 14 14 14 14 14 13 15 13 14 13 11 10 9 8 6 5 5 5 5 4 4 4 3 3 3 2 2 2 2 2 2 2 1 1 1 1 1 1 1 1 1 2
17 14 14 15 14 13 13 13 14 13 14 11 10 10 9 8 7 6 6 5 5 4 4 4 4 3 3 3 2 2 2 2 2 2 2 2 1 1 1 1 1 1 1 1
20 15 15 16 14 13 13 12 13 14 12 11 11 11 10 9 9 8 6 5 5 4 4 4 4 3 3 3 2 2 3 2 2 2 2 2 2 2 2 2 1 1 1 1
19 17 20 15 12 11 12 11 11 12 11 10 10 9 9 8 8 8 7 5 4 4 3 3 3 3 2 2 3 3 3 3 2 2 2 2 2 2 2 2 2 2 2 1
19 19 16 14 11 11 12 12 10 11 10 10 9 9 10 9 8 8 7 5 4 4 4 3 4 3 3 3 3 3 3 3 2 2 2 2 2 2 2 2 2 2 1 1
18 19 20 14 9 8 9 15 9 9 9 10 10 12 10 7 6 6 6 5 4 4 4 4 4 3 3 3 3 3 3 3 2 2 2 2 2 2 2 2 2 2 2 1
18 18 16 12 9 8 15 13 9 8 9 9 10 8 7 6 5 5 5 5 4 4 3 3 3 3 3 3 4 3 2 2 2 2 2 2 2 2 2 2 2 2 2 2
17 18 19 8 9 13 10 8 8 8 8 8 9 8 6 5 5 4 4 4 3 6 6 4 3 3 4 4 2 2 2 2 2 2 2 2 2 2 2 2 2 3 2 2
13 15 10 8 9 7 7 8 7 7 7 7 7 6 6 6 6 5 5 5 4 4 4 3 3 3 3 3 2 2 2 2 2 2 2 2 2 2 3 2 3 3 3 3
12 9 9 8 7 6 6 7 7 6 6 6 7 6 6 6 6 5 5 5 4 4 4 4 3 3 3 2 2 2 3 3 2 2 2 2 2 2 2 3 3 3 3 3
11 9 8 8 7 7 6 6 7 6 6 6 6 6 6 6 5 5 5 4 4 4 4 4 3 3 3 3 3 4 3 3 3 3 6 7 8 9 7 10 7 3 3 3
12 9 9 9 7 6 6 7 7 7 6 5 5 6 6 6 6 5 5 4 4 4 5 4 3 3 3 4 3 4 5 5 6 6 5 5 6 7 13 13 13 14 13 9
9 6 7 6 6 5 6 7 7 7 6 7 6 5 5 5 5 6 5 4 4 4 4 3 3 3 4 4 4 5 5 5 6 6 7 7 7 7 8 8 13 13 12 10
5 6 8 7 8 7 6 7 6 6 6 5 5 5 5 5 5 5 5 4 3 3 3 3 3 3 2 3 3 4 4 8 3 4 5 5 6 7 7 5 6 5 12 12
6 5 6 6 5 6 6 6 7 7 6 6 4 5 5 5 5 5 5 5 5 5 6 5 5 4 3 2 4 3 3 3 2 2 2 4 4 4 4 4 4 3 7 10
6 6 6 6 6 6 6 6 7 7 6 6 6 6 6 6 6 6 5 5 6 7 6 6 6 5 4 2 2 2 3 5 4 3 3 3 3 3 3 3 4 5 5 7
8 8 7 7 7 6 7 6 6 6 7 7 7 7 7 7 7 7 6 6 6 6 5 5 5 5 5 3 3 2 2 3 5 3 3 3 3 3 3 3 3 3 4 7
5 5 5 6 6 6 6 5 5 5 5 5 5 6 6 6 6 6 6 6 5 4 5 4 5 4 4 4 3 3 3 3 3 3 3 3 3 4 4 4 3 5 7 9
5 5 5 5 5 5 5 5 5 4 4 4 4 5 4 4 4 4 4 5 5 4 4 3 3 4 4 3 3 3 3 3 3 3 3 5 4 4 4 4 5 5 5 6
6 5 5 6 5 5 5 4 4 4 4 4 4 4 5 5 5 6 7 8 7 6 6 6 5 4 3 2 4 3 2 3 3 4 3 3 3 3 4 6 4 5 5 5
6 6 6 6 6 5 4 3 4 5 4 5 6 7 7 6 7 7 7 7 6 6 5 5 5 5 4 2 1 2 2 2 2 2 3 3 3 3 3 4 4 5 5 6
9 8 7 7 7 7 6 5 4 4 5 5 5 5 6 6 6 6 6 7 6 6 6 6 5 5 4 4 3 2 2 2 2 2 3 3 3 3 3 3 3 3 4 4
9 9 9 9 9 8 8 8 7 7 7 7 7 7 8 8 8 7 8 7 6 7 6 6 6 6 6 5 5 5 6 6 3 3 3 2 3 3 3 2 2 2 3 3
9 9 9 8 8 9 9 9 8 8 9 9 9 8 8 7 9 8 8 8 8 8 8 7 6 6 6 5 5 6 6 6 5 5 6 8 7 6 5 4 3 3 2 3
8 8 8 8 9 9 8 8 8 8 9 9 9 8 8 8 9 9 8 8 8 8 8 7 7 7 6 5 4 4 4 5 5 5 5 5 6 7 8 8 8 7 6 6
9 9 9 9 9 9 8 8 9 8 8 8 9 9 9 9 9 9 9 9 9 9 9 9 8 8 7 6 6 5 5 5 4 4 5 5 6 6 6 8 8 8 7 7
8 8 8 8 8 8 8 8 9 9 8 8 9 8 8 8 8 8 8 8 8 8 8 8 7 7 7 6 6 6 6 5 7 4 4 4 5 6 6 6 6 7 6 6

GFSNGP_con_lsi_042.txt.gz
Lid_Strength_Index
9 10 10 9 9 9 9 9 10 8 8 7 5 5 4 3 4 4 4 3 2 3 2 2 2 2 2 1 1 1 1 1 1 1 1 1 1 1 0 0 0 0 0 0
11 10 11 11 10 9 9 8 8 8 8 5 4 4 4 3 3 3 3 3 3 2 2 2 2 2 1 2 1 1 1 2 1 1 1 1 1 1 1 1 1 0 1 1
12 10 11 12 10 9 9 8 8 9 7 5 5 5 4 4 3 3 3 3 3 2 2 2 2 1 2 1 1 1 1 1 1 1 1 1 1 1 1 1 1 1 1 1
12 11 15 9 6 7 9 8 7 7 6 6 5 4 4 3 3 3 3 2 3 3 2 1 1 1 1 1 1 2 2 2 1 1 1 1 1 1 1 1 1 1 1 1
13 13 11 9 9 9 9 9 7 7 6 6 5 5 5 3 2 2 2 2 2 1 2 1 1 1 1 1 1 2 2 2 2 1 1 1 2 2 1 1 1 1 1 1
12 14 15 10 7 7 7 10 6 6 6 6 5 7 6 3 3 2 2 1 1 1 1 1 1 1 1 2 2 2 2 2 1 1 1 2 1 1 1 1 1 1 1 1
14 14 12 8 7 6 11 11 6 5 6 6 7 6 4 3 3 2 2 2 1 1 1 1 1 1 1 2 2 2 1 1 1 1 1 1 1 1 1 1 1 1 2 1
13 14 16 8 8 10 6 5 5 5 5 5 5 4 4 3 3 3 3 2 2 2 2 1 1 1 2 2 1 1 1 1 1 1 1 1 1 1 1 1 2 2 2 2
10 12 8 8 8 6 6 6 5 5 4 4 4 4 4 4 4 3 3 2 2 2 1 1 1 1 2 2 1 1 1 1 1 1 1 1 2 2 2 2 2 2 2 3
9 8 8 8 7 6 6 6 5 4 4 3 4 4 4 4 4 3 3 3 2 2 2 2 2 2 1 1 1 1 2 2 1 2 2 1 1 1 2 2 2 2 3 3
9 8 7 7 7 6 6 6 6 5 5 3 3 4 4 4 4 3 3 3 2 3 3 3 2 2 1 1 1 2 2 2 2 2 2 2 1 2 2 1 3 2 2 2
10 6 6 6 6 6 6 5 5 4 4 3 3 4 3 4 3 3 4 3 3 3 3 3 3 3 2 1 1 1 2 2 2 2 2 2 2 3 15 16 17 17 14 7
6 5 6 5 5 5 6 6 5 5 4 4 3 3 4 5 4 5 4 4 3 3 3 2 2 2 2 1 1 2 2 2 2 3 2 2 2 3 4 8 15 17 17 17
5 5 6 5 6 5 5 5 5 3 3 3 4 4 4 5 4 4 4 3 3 3 3 2 2 2 1 1 2 2 2 6 2 2 2 2 2 2 2 3 3 3 11 13
8 6 6 4 5 6 5 5 4 4 5 5 4 5 4 5 5 4 3 2 2 2 3 3 3 2 1 1 2 2 2 2 2 2 2 2 2 2 2 2 2 2 2 7
6 7 7 6 6 5 5 5 5 6 5 5 5 5 4 5 3 3 2 2 3 4 3 3 3 2 1 1 2 2 2 4 3 2 2 2 2 3 2 2 2 3 2 2
7 7 6 6 5 5 5 5 5 6 5 5 5 5 5 4 4 4 4 3 2 2 2 2 2 1 1 1 1 2 2 1 3 1 2 2 1 2 2 2 2 3 2 2
6 5 4 5 5 6 6 5 5 5 5 5 4 5 5 5 5 4 3 2 2 3 2 1 1 1 1 1 1 1 1 1 1 2 1 2 2 2 2 2 2 2 2 4
5 5 5 5 5 5 6 7 7 7 7 6 6 6 5 5 5 4 3 4 3 3 2 1 2 1 1 1 1 1 1 1 2 2 2 3 2 2 2 2 2 2 3 3
7 7 7 6 5 5 7 7 7 7 7 7 6 6 6 5 5 5 5 5 4 4 3 3 1 1 1 1 1 1 1 1 1 1 1 2 2 2 2 4 2 3 3 2
7 7 8 8 9 8 6 6 7 7 8 7 7 7 9 8 6 6 7 8 6 4 4 5 4 2 2 1 1 1 1 1 1 2 2 2 2 2 2 1 2 2 2 1
7 7 7 8 8 8 7 6 6 6 7 7 7 8 8 8 8 8 6 7 5 6 4 4 4 4 3 2 1 1 1 1 3 3 3 2 2 2 2 2 2 1 1 1
6 7 8 7 8 9 8 8 7 6 6 6 5 6 7 7 7 8 8 6 5 6 5 5 6 5 5 3 3 4 4 4 4 4 6 6 6 6 5 4 2 2 2 2
5 6 5 6 7 7 8 8 7 7 7 6 6 5 5 6 6 6 6 7 7 7 6 6 6 6 5 4 3 3 3 4 4 5 6 9 7 6 6 6 5 4 3 4
4 5 5 6 6 6 6 5 6 6 6 6 6 6 6 6 7 7 6 7 8 6 6 7 7 6 5 4 4 4 4 4 4 3 3 4 7 8 6 6 5 5 5 4
5 5 5 5 5 5 4 5 6 5 6 6 6 6 6 6 6 6 6 6 6 6 6 6 6 5 5 5 5 4 4 4 4 4 4 4 4 4 5 6 5 4 4 4
5 6 4 5 5 5 5 5 5 6 5 5 5 5 5 5 5 5 6 5 5 5 5 5 6 6 6 5 5 5 5 5 7 4 4 4 4 5 6 7 7 7 5 5

GFSNGP_con_lsi_045.txt.gz
Lid_Strength_Index
8 7 7 8 8 8 8 7 9 8 8 6 5 5 4 3 3 3 3 3 2 2 2 1 2 2 2 1 1 1 1 1 1 1 1 1 1 1 0 0 0 0 0 0
10 7 8 9 7 8 7 8 7 7 7 5 4 4 4 3 3 4 4 3 2 2 2 2 2 2 2 2 1 1 1 1 1 1 1 1 1 1 1 1 1 0 1 1
12 9 9 11 8 8 7 6 7 8 6 4 5 4 4 4 3 3 3 3 3 3 2 1 1 1 2 1 1 1 1 1 1 1 1 1 1 1 1 1 1 1 1 1
11 10 15 8 6 6 7 6 6 6 5 5 4 4 3 3 3 3 2 2 2 2 2 1 1 1 1 1 1 1 2 2 1 1 1 1 1 1 1 1 1 1 1 1
12 12 10 8 7 7 8 8 5 6 5 5 4 4 4 3 2 2 2 2 2 1 1 1 1 1 1 1 1 2 2 2 1 1 2 2 2 2 1 1 1 1 1 1
11 13 14 8 6 6 6 10 5 5 5 5 4 7 5 2 2 2 2 2 2 1 1 1 1 1 1 1 2 2 2 2 1 1 1 2 2 2 1 1 1 1 1 1
13 13 10 6 5 5 10 11 6 5 5 5 6 5 4 3 3 2 2 2 2 1 2 1 1 1 1 1 2 1 1 1 1 1 1 1 1 1 1 1 1 1 1 1
12 13 13 6 7 8 6 5 5 5 5 5 4 4 4 3 3 3 3 2 2 2 2 1 1 1 1 2 1 1 1 1 1 1 1 1 1 1 1 1 2 2 2 2
10 11 7 6 6 6 5 6 5 5 5 4 4 4 3 3 3 3 3 3 2 2 2 1 1 0 2 2 1 1 1 2 1 1 1 1 2 2 2 2 2 2 2 2
9 8 8 7 6 6 6 6 5 5 5 5 6 5 4 3 3 3 3 3 2 2 2 2 1 1 1 1 1 1 2 2 2 2 2 1 1 2 2 2 2 2 3 3
8 7 7 7 6 6 6 6 6 5 5 5 4 4 3 3 3 3 3 3 2 2 2 2 1 1 1 1 1 2 2 2 2 2 2 2 2 3 2 2 5 2 2 2
9 6 6 6 5 5 6 6 5 5 5 4 4 4 3 3 2 3 3 3 3 2 3 3 2 2 2 1 1 1 2 2 2 2 2 2 2 4 16 15 17 17 17 9
7 5 5 5 5 5 6 6 5 5 5 5 5 4 4 3 2 4 3 3 3 3 2 3 3 3 2 1 1 1 2 2 2 3 2 2 2 2 3 11 17 17 18 17
5 5 7 6 6 5 5 5 5 5 5 4 4 4 4 3 3 3 3 3 3 3 3 2 2 3 2 1 1 1 2 7 2 2 2 2 2 2 2 3 3 2 13 13
8 6 6 4 5 6 5 5 6 6 5 5 4 3 2 3 3 4 3 3 3 3 3 2 2 2 1 1 1 2 2 2 2 2 2 2 2 2 2 2 2 2 2 7
6 7 6 6 5 5 6 6 6 6 5 4 3 3 3 3 4 4 3 3 4 4 3 3 3 2 1 1 1 2 2 4 3 2 2 2 2 2 2 2 2 2 2 2
6 6 6 6 6 5 5 6 6 5 4 4 3 3 4 4 4 4 4 3 3 3 2 2 2 1 1 1 1 1 2 2 3 2 2 2 2 2 2 2 2 2 2 2
4 5 5 5 5 5 5 4 4 3 4 4 4 4 4 5 5 5 4 3 3 2 2 2 1 1 1 1 1 1 1 1 1 2 2 2 2 2 2 2 2 2 2 2
6 5 5 5 5 5 5 5 4 5 7 6 7 7 6 6 5 5 4 3 3 3 3 1 3 1 1 2 1 1 2 1 2 2 2 3 2 2 2 2 2 2 2 2
7 7 6 6 6 6 6 7 7 8 8 9 9 10 9 8 7 7 7 7 6 5 2 2 1 1 1 2 2 2 2 2 2 2 2 2 2 2 2 3 2 2 2 2
7 7 8 7 7 6 6 7 8 9 9 9 10 10 10 9 9 8 8 9 6 5 5 4 2 2 1 2 2 2 2 3 2 2 2 2 2 2 2 2 2 2 2 2
6 7 7 7 8 8 7 7 7 8 9 9 9 9 10 11 10 10 8 9 8 8 6 5 4 4 3 3 3 2 3 3 3 2 2 2 2 2 2 2 2 2 2 1
6 6 6 6 7 7 7 8 7 6 6 6 7 7 8 8 8 10 11 9 8 8 7 7 7 7 6 4 4 4 5 5 4 4 3 3 3 3 4 5 4 3 2 2
5 4 5 5 5 5 6 5 6 6 6 6 6 6 6 7 8 8 8 8 9 8 8 8 7 7 7 5 5 4 4 4 4 4 5 7 5 4 4 4 5 5 5 5
4 4 4 5 5 5 4 4 5 6 6 6 5 5 6 6 7 7 7 7 8 7 7 7 7 7 6 6 6 5 5 5 4 4 4 4 4 5 7 7 6 5 5 5
5 5 5 4 4 5 4 4 5 5 6 6 6 6 6 6 6 6 7 7 7 7 7 8 7 7 6 6 6 6 6 6 6 5 6 5 6 6 6 6 7 8 8 7
5 6 4 4 4 4 4 5 5 5 5 5 5 5 5 5 5 6 6 5 6 6 6 6 7 7 7 6 6 6 5 5 8 6 5 5 5 5 5 5 6 6 7 8

GFSNGP_con_lsi_048.txt.gz
Lid_Strength_Index
8 7 7 8 8 8 8 8 10 8 8 7 5 5 4 4 4 4 4 3 3 3 3 3 3 2 2 2 2 1 2 2 2 1 1 1 1 1 1 1 1 1 1 1
10 8 8 9 8 8 8 8 7 8 8 5 4 4 4 4 4 4 4 3 3 2 1 1 3 2 2 2 2 1 2 2 2 2 1 1 1 1 1 1 1 1 1 1
13 9 9 11 8 8 7 7 7 9 6 5 5 5 5 4 3 3 3 3 2 2 1 -0 1 2 2 2 1 2 2 2 2 2 2 2 1 1 1 1 1 1 1 1
12 11 16 9 6 6 7 6 6 6 5 5 5 4 4 3 3 3 3 3 2 2 2 2 2 1 2 2 2 2 2 2 2 2 2 2 2 2 2 1 2 2 1 1
13 13 11 9 7 7 8 8 5 6 5 5 4 4 4 3 2 2 2 1 2 2 2 1 2 1 2 2 2 2 2 2 2 2 2 2 2 2 2 2 2 2 1 1
11 14 15 9 6 5 5 10 5 5 5 5 5 7 6 4 3 3 3 3 3 2 2 2 2 1 2 2 2 3 2 2 1 1 2 2 2 2 1 1 2 1 2 1
12 13 10 8 7 6 11 12 6 6 6 5 6 6 4 3 3 3 3 2 2 2 2 2 1 2 1 0 2 2 2 2 2 2 2 2 2 1 2 2 2 2 2 1
11 12 14 7 7 10 8 5 5 5 5 5 5 4 4 3 3 3 3 3 2 3 2 2 1 1 2 2 1 0 1 2 2 2 2 2 2 2 2 2 2 2 2 2
10 10 6 6 7 6 6 6 6 6 6 5 6 6 6 5 3 3 3 3 2 3 3 2 2 1 2 2 1 1 2 2 2 2 2 1 2 2 2 2 3 3 3 3
8 8 7 7 6 6 6 6 6 6 6 6 6 7 6 5 3 3 3 3 3 3 3 3 1 1 1 1 1 2 2 2 2 2 2 2 2 2 2 2 3 3 3 3
9 7 7 7 7 7 7 6 6 6 6 6 6 7 6 4 3 3 3 3 3 3 3 3 2 2 1 1 1 2 2 2 2 2 2 2 2 4 2 5 6 3 2 2
10 7 7 7 6 6 7 7 6 6 6 6 5 5 4 4 3 3 3 3 3 3 3 3 2 2 2 2 1 2 3 3 3 2 2 2 4 6 17 17 18 18 17 7
8 5 6 6 5 5 6 6 6 6 5 6 5 5 4 4 3 3 2 3 3 3 3 3 2 2 2 2 2 2 2 2 2 3 2 3 3 3 6 12 18 18 18 17
7 6 8 7 7 5 5 5 5 5 5 5 5 4 4 4 3 3 3 2 2 3 3 2 3 3 2 1 2 2 2 8 2 2 2 2 3 3 2 4 6 8 15 15
8 8 8 6 6 5 5 5 6 6 5 5 4 4 4 4 3 3 2 2 2 3 3 3 3 2 1 1 2 2 2 1 1 2 2 2 2 2 2 2 3 6 8 11
5 6 7 8 7 7 6 5 6 6 5 5 4 3 3 3 3 3 2 2 4 4 3 3 3 2 2 1 1 2 2 6 3 2 2 2 2 2 2 2 2 2 2 3
7 7 6 7 6 6 6 6 5 5 5 5 4 3 3 3 3 3 3 3 3 3 3 3 3 1 1 1 1 2 2 2 4 2 2 2 2 2 2 2 3 3 3 6
6 6 5 5 6 5 5 4 4 5 5 4 4 4 4 4 4 4 3 3 3 3 3 2 2 1 1 1 1 1 2 2 2 2 2 2 2 2 2 2 3 2 2 3
6 7 7 5 5 4 5 5 4 4 4 4 5 5 4 5 6 6 3 3 4 4 4 3 4 3 2 3 2 1 2 2 2 2 2 3 2 2 2 2 2 2 2 2
5 6 6 6 6 4 5 4 5 5 5 6 7 8 7 7 8 8 8 8 8 7 5 4 3 4 4 4 3 2 2 2 2 2 2 2 2 2 2 4 2 2 2 2
7 5 6 6 6 6 5 5 7 7 8 8 8 8 9 9 10 10 10 10 9 8 7 6 5 5 4 4 4 5 4 4 3 3 4 3 2 2 3 3 3 3 2 2
5 6 6 6 6 7 6 5 6 7 7 9 9 9 10 11 10 10 10 10 9 9 8 7 6 6 6 5 5 5 5 5 5 4 4 3 3 3 3 3 3 4 4 4
5 5 5 6 6 6 6 6 6 6 7 8 9 9 10 10 10 11 11 10 10 11 9 8 8 7 7 6 6 5 6 6 5 5 5 5 5 5 5 5 5 5 5 5
4 4 4 4 5 6 7 7 6 7 8 8 8 7 7 8 8 8 8 9 9 9 9 9 8 9 8 7 7 7 6 6 7 7 7 9 7 8 9 7 5 6 6 7
4 3 3 4 5 6 5 6 7 7 7 8 8 7 7 7 8 7 7 8 9 9 9 9 8 8 8 8 9 8 8 8 7 7 7 6 6 6 7 8 9 9 7 6
3 4 4 3 4 5 5 5 6 6 6 8 8 8 8 8 8 7 7 8 7 8 9 9 9 8 9 9 8 8 8 8 7 7 7 6 7 7 7 8 8 9 9 9
4 5 4 4 4 4 5 5 6 7 7 6 7 7 7 7 8 8 8 8 8 9 9 9 9 9 9 9 8 8 8 8 10 7 7 7 7 7 7 7 7 8 9 10